www.pogodaiklimat.ru

Погода и климат >> Архив погоды >> Россия >> Забайкальский край >> Тунгокочен


ПОГОДА в Тунгокочене

  • Прогноз погоды в Тунгокочене
  • Монитор погоды в Тунгокочене

АРХИВ ПОГОДЫ в Тунгокочене

Время (UTC), дата Ветер
(напр.,м/с)
 
Видим.   Явления Облачность Т
(С)
Тd
(С)
f
(%)
Тe
(С)
Тes
(С)
Комфортность P
(гПа)
Po
(гПа)
Тmin
(С)
Tmax
(С)
R
(мм)
R24
(мм)
S
(см)
21 12.07 штиль 0 50 км 10/0
[Ci sp]
+9.7 +9.3 97 +9 +9 1009.2 916.2
00 13.07 штиль 0 20 км дым {туман} 10/0
[Ci sp]
+15.0 +12.6 86 +15 +22 1008.2 917.0 +9.6 0.0
03 13.07 В 1 10 км дым 10/0
[Ac cuf Cs]
+23.5 +13.0 52 +26 +34 жарко 1003.9 915.6
06 13.07 В 2 10 км в посл. час гроза 10/6 1000 м
[Cb cap Ac trans Cs]
+24.4 +14.5 54 +27 +30 жарко 1001.9 914.1
09 13.07 В 1 10 км дым 6/4 1000 м
[Cb cap Ci ing]
+24.3 +12.3 47 +26 +29 жарко 1001.9 913.9
12 13.07 СВ 1 10 км дым 6/3 1000 м
[Sc diur, vesp Ac trans Ci fib]
+20.2 +14.1 68 +24 +24 комфорт 1004.5 915.2 +25.0
15 13.07 СЗ 1 н/о 1/0
[Ac lent]
+11.4 +10.4 94 +11 +11 1008.6 916.2
18 13.07 штиль 0 н/о туман ясно +9.4 +9.0 97 +8 +8 1009.3 916.2
21 13.07 штиль 0 500 м туман ясно +5.8 +5.8 100 +5 +5 1010.6 916.2
00 14.07 штиль 0 50 км ясно +15.5 +10.5 72 +15 +24 1006.8 915.8 +5.5
03 14.07 ЮЗ 2 50 км 4/4 1000 м
[Cb cap]
+20.6 +9.6 49 +23 +32 комфорт 1004.0 914.7
06 14.07 СЗ 2 50 км 6/6 1000 м
[Cb cap]
+23.2 +6.8 35 +24 +30 комфорт 1001.8 913.4
09 14.07 С 2 50 км 9/5 1000 м
[Cb cap Ac lent Ci fib]
+21.3 +8.4 44 +22 +24 комфорт 1002.2 913.3
12 14.07 ЮВ 1
{10}
50 км 4/3 1000 м
[Cb cap Ac lent]
+17.8 +10.3 61 +19 +19 1004.1 914.0 +24.0
15 14.07 штиль 0 н/о 1/0
[Ac lent]
+6.9 +5.9 93 +6 +6 1009.4 915.4
18 14.07 штиль 0 н/о ясно +4.3 +4.1 99 +3 +3 1010.5 915.5
21 14.07 штиль 0 50 км туман ясно +3.0 +2.8 99 +2 +2 1011.1 915.6
00 15.07 штиль 0 50 км {туман} ясно +12.5 +8.0 74 +12 +21 1008.3 916.2 +2.5
03 15.07 СВ 3 50 км 4/4 1000 м
[Cu med, cong]
+21.1 +10.8 52 +23 +30 комфорт 1004.7 915.6
06 15.07 В 2 50 км 8/8 1000 м
[Cu med, cong]
+23.2 +10.8 46 +25 +28 комфорт 1003.8 915.4
09 15.07 СВ 2 50 км 6/4 1000 м
[Cu med, cong Ci ing]
+24.5 +8.9 37 +25 +28 комфорт 1003.2 915.1
12 15.07 СЗ 1 50 км 3/0
[Ac lent]
+20.1 +12.0 60 +23 +23 комфорт 1005.5 916.1 +24.8
15 15.07 штиль 0 н/о 1/0
[Ci fib]
+9.0 +8.0 93 +8 +8 1010.9 917.5
18 15.07 штиль 0 н/о ясно +6.4 +5.7 95 +5 +5 1012.4 918.0
21 15.07 штиль 0 200 м туман ?/? +5.0 +5.0 100 +4 +4 1013.0 918.1
00 16.07 С 1 20 км дым {туман} ясно +14.8 +10.6 76 +15 +23 1010.8 919.3 +4.7
03 16.07 СВ 2 50 км 1/1 1000 м
[Cu med, cong]
+23.9 +8.4 37 +24 +38 комфорт 1007.2 918.5
06 16.07 С 2 50 км 3/3 1000 м
[Cu med, cong]
+26.9 +12.3 40 +28 +38 жарко 1004.1 916.6
09 16.07 СЗ 2 50 км 1/1 1000 м
[Cu med, cong]
+28.6 +6.2 24 +27 +32 жарко 1002.8 915.8
12 16.07 штиль 0 50 км 3/0
[Ac lent Ci fib]
+21.9 +12.8 56 +24 +25 комфорт 1004.8 915.9 +29.2
15 16.07 штиль 0 н/о 6/0
[Ac und]
+12.5 +10.4 87 +12 +12 1009.7 917.6
18 16.07 штиль 0 н/о 3/0
[Ac lent]
+8.8 +8.2 96 +8 +8 1010.6 917.2
21 16.07 штиль 0 50 км 10/0
[Ac und]
+8.2 +7.8 97 +7 +7 1011.2 917.5
00 17.07 штиль 0 50 км 10/0
[Ac lent Ci fib]
+16.0 +11.2 73 +16 +22 1009.4 918.3 +7.6
03 17.07 З 1 50 км 10/3 1000 м
[Cu med, cong Ci fib]
+25.7 +13.0 45 +28 +37 жарко 1005.2 917.4
06 17.07 штиль 0 20 км дым 8/4 1000 м
[Cb cap Ci fib]
+29.0 +11.8 35 +30 +40 жарко 1001.7 915.1
09 17.07 В 2 10 км дым 8/3 1000 м
[Cb cap Ci ing]
+28.9 +11.3 34 +30 +33 жарко 1001.7 915.0
12 17.07 штиль 0 10 км дым 10/0
[Ac lent Cs]
+21.3 +16.3 73 +25 +25 комфорт 1004.2 915.3 +30.0
15 17.07 штиль 0 н/о 8/0
[Ci fib]
+13.1 +11.9 92 +13 +13 1008.1 916.3
18 17.07 штиль 0 н/о 4/0
[Ci fib]
+11.0 +10.8 99 +10 +10 1008.5 916.0
21 17.07 штиль 0 500 м туман 4/0
[Ci fib]
+9.5 +9.3 99 +9 +9 1009.1 916.0
00 18.07 Ю 1 10 км дым {туман} 10/0
[Ci ing]
+17.6 +12.9 74 +19 +24 1005.8 915.6 +8.6
03 18.07 С 1 10 км дым 10/1 1000 м
[Cu med, cong Cs]
+26.7 +16.2 53 +30 +42 душно 1001.8 914.7
06 18.07 В 2 10 км в посл. час гроза 10/4 1000 м
[Cb cap Cs]
+27.2 +12.7 41 +29 +35 жарко 999.7 912.7
09 18.07 З 3 20 км дым 10/3 1000 м
[Sc diur, vesp Ci sp]
+27.8 +13.3 41 +30 +32 жарко 998.5 911.8
12 18.07 З 2 50 км {гроза} 10/6 1000 м
[Sc Ac lent Ci fib]
+23.9 +14.5 56 +27 +27 жарко 1000.0 912.2 +28.9
15 18.07 В 1 н/о 10/10 1000 м
[Cb cap]
+18.3 +15.7 85 +20 +20 1001.6 912.1
18 18.07 штиль 0 н/о {ливн. осадки} 8/4 1000 м
[Cb cap Ac trans]
+17.5 +15.3 87 +17 +17 1000.9 911.2
21 18.07 штиль 0 20 км слаб. ливневой дождь 10/10 1000 м
[Cb cap]
+16.0 +14.2 89 +16 +16 1001.1 910.9
00 19.07 штиль 0 50 км {ливн. осадки} 10/8 1000 м
[Cb cap Ci fib]
+17.6 +14.8 84 +18 +18 1001.1 911.4 +15.5 0.1
03 19.07 В 2 2000 м мгла {туман} 10/6 1000 м
[Sc Ci fib]
+23.4 +13.1 52 +26 +31 жарко 998.9 911.0
06 19.07 В 2 2000 м мгла {туман} 10/0
[Ci fib]
+24.9 +13.5 49 +27 +38 жарко 996.8 909.5
09 19.07 СВ 4 20 км дым {туман} 10/5 1000 м
[Sc Ci fib]
+23.3 +15.4 61 +28 +29 душно 997.4 909.7
12 19.07 В 3 20 км дым {туман} 10/10 1000 м
[Sc]
+21.5 +15.5 69 +25 +25 комфорт 998.6 910.3 +25.6
15 19.07 СВ 3 н/о слаб. ливневой дождь 10/10 1000 м
[Cb cap]
+17.7 +16.1 90 +18 +18 1000.1 910.5

 

Местоположение метеостанции Тунгокочен (Забайкальский край, Россия): широта 53.53 долгота 115.60 высота над уровнем моря 811 м.

В архиве по умолчанию представлена погода в Тунгокочене за последнюю неделю. Архивные данные за месяц целиком и за предыдущие месяцы, начиная с января 2011 года, Вы можете получить, выбрав интересующий диапазон дат из раскрывающегося списка и нажав кнопку "Ввод!".


*Определитесь, кто Вы:
робот инопланетянин человек

Внимание! Время в таблицах - всемирное. Для получения местного времени необходимо прибавить поправку, которая равна 9 ч.

Смотрите также архив погоды в соседних городах и на ближайших метеорологических станциях:

Погода в Усугли (Забайкальский край, Россия) (103 км)
Погода в Усть-Каренге (Забайкальский край, Россия) (116 км)
Погода в Чернышевске (Забайкальский край, Россия) (145 км)
Погода в Багдарине (Бурятия, Россия) (170 км)
Погода в Бургени (Забайкальский край, Россия) (177 км)
Погода в Телембе (Бурятия, Россия) (177 км)
Погода в Нерчинске (Забайкальский край, Россия) (181 км)
Погода в Шилке (Забайкальский край, Россия) (187 км)
Погода в Романовке (Бурятия, Россия) (196 км)
Погода в Троицком Прииске (Бурятия, Россия) (201 км)

Пояснения к столбцам:

Ветер - указаны скорость ветра в м/с - средняя за 10 мин, порывы в срок и между сроками (в фигурных скобках) и направление, откуда дует ветер: С - северный, СВ - северо-восточный, В - восточный, ЮВ - юго-восточный, Ю - южный, ЮЗ - юго-западный, З - западный, СЗ - северо-западный.
Видимость - горизонтальная дальность видимости в метрах или километрах. При видимости от 1 до 10 км при отсутствии осадков обычно наблюдается дымка, при ухудшении видимости до 1 км и менее - туман. В сухую погоду видимость может ухудшаться дымом, пылью или мглою.
Явления - указаны атмосферные явления, наблюдавшиеся в срок или в последний час перед сроком; фигурными скобками обозначены явления, наблюдавшиеся между сроками (за 1-3 часа до срока); квадратными скобками обозначены град или гололедные отложения с указанием их диаметра в мм.
Облачность - указаны через наклонную черту общая и нижняя облачность в баллах и высота нижней границы облаков в метрах; квадратными скобками обозначены формы облаков: Ci - перистые, Cs - перисто-слоистые, Cc - перисто-кучевые, Ac - высококучевые, As - высокослоистые, Sc - слоисто-кучевые, Ns - слоисто-дождевые, Cu - кучевые, Cb - кучево-дождевые. Подробнее классификацию облаков см. в Атласе облаков (PDF).
T - Температура воздуха - температура, измеренная на высоте 2 м над землей.
Td - Температура точки росы - температура, при понижении до которой содержащийся в воздухе водяной пар достигнет насыщения.
f - Относительная влажность воздуха - влажноcть воздуха, измеренная на высоте 2 м над землей.
Te - Эффективная температура - температура, которую ощущает одетый по сезону человек в тени. Характеристика душности погоды. При расчете учитывается влияние влажности воздуха и скорости ветра на теплоощущения человека.
Tes - Эффективная температура на солнце - температура, которую ощущает человек, с поправкой на солнечный нагрев. Характеристика знойности погоды. Зависит от высоты солнца над горизонтом, облачности и скорости ветра. Ночью, в пасмурную погоду, а также при ветре 12 м/с и более поправка равна нулю.
P - Атмосферное давление - приведенное к уровню моря атмосферное давление.
Po - Атмосферное давление - измеренное на уровне метеостанции атмосферное давление.
Tmin - Минимальная температура - минимум температуры воздуха на высоте 2 м над землей.
Tmax - Максимальная температура - максимум температуры воздуха на высоте 2 м над землей.
R - Количество осадков - Количество выпавших осадков за период времени, мм. При наведении курсора мыши на число - период времени, за который выпало указанное количество осадков.
R24 - Количество осадков - Количество выпавших осадков за 24 часа, мм.
S - Снежный покров - Высота снежного покрова, см. При наведении курсора мыши на число - состояние снежного покрова и степень покрытия местности в баллах.